When you browse on this site, cookies collect data to enhance your experience and personalize the content and advertising you see.
Visit our Privacy Policy to learn more. By continuing to use the site, you agree to this use of cookies and data.
  • In Latvia
  • List of Countries
  • For 7 days
  • Water Temperature
  • Weather Map
  • Weather Widgets
  • user-avatar
    Login

    Hourly Weather Verbilovo

    Today, 26 February, Wednesday

    Time Temperature Precipitation Wind Pressure Humidity
    00:00 0°C° 0.1 mm 3 mps 730 mmHg 97%
    01:00 0°C° 0.1 mm 3 mps 730 mmHg 96%
    02:00 +1°C° 0.1 mm 3 mps 729 mmHg 96%
    03:00 +1°C° 0.1 mm 3 mps 729 mmHg 96%
    04:00 +2°C° 0.1 mm 2 mps 728 mmHg 97%
    05:00 +1°C° 0.1 mm 2 mps 728 mmHg 97%
    06:00 +1°C° 0.1 mm 2 mps 728 mmHg 96%
    07:00 +1°C° 0.1 mm 2 mps 728 mmHg 96%
    08:00 +1°C° 0.1 mm 2 mps 728 mmHg 95%
    09:00 +1°C° 0 mm 2 mps 728 mmHg 92%
    10:00 +1°C° 0 mm 3 mps 729 mmHg 90%
    11:00 +1°C° 0 mm 3 mps 729 mmHg 88%
    12:00 +2°C° 0 mm 3 mps 729 mmHg 85%
    13:00 +3°C° 0 mm 2 mps 729 mmHg 82%
    14:00 +4°C° 0 mm 2 mps 729 mmHg 79%
    15:00 +4°C° 0 mm 2 mps 729 mmHg 82%
    16:00 +3°C° 0 mm 2 mps 729 mmHg 84%
    17:00 +4°C° 0 mm 1 mps 729 mmHg 86%
    18:00 +3°C° 0 mm 1 mps 730 mmHg 88%
    19:00 +3°C° 0 mm 1 mps 730 mmHg 90%
    20:00 +2°C° 0 mm 1 mps 730 mmHg 92%
    21:00 +2°C° 0 mm 1 mps 730 mmHg 92%
    22:00 +2°C° 0 mm 1 mps 730 mmHg 92%
    23:00 +1°C° 0 mm 2 mps 730 mmHg 92%

    Tomorrow, 27 February, Thursday

    Time Temperature Precipitation Wind Pressure Humidity
    00:00 +1°C° 0 mm 1 mps 730 mmHg 93%
    01:00 +1°C° 0 mm 1 mps 730 mmHg 93%
    02:00 +1°C° 0 mm 1 mps 730 mmHg 93%
    03:00 +1°C° 0 mm 1 mps 730 mmHg 94%
    04:00 +1°C° 0 mm 1 mps 730 mmHg 94%
    05:00 +1°C° 0 mm 1 mps 729 mmHg 95%
    06:00 +1°C° 0 mm 1 mps 730 mmHg 95%
    07:00 +2°C° 0 mm 1 mps 730 mmHg 95%
    08:00 +2°C° 0 mm 1 mps 730 mmHg 95%
    09:00 +1°C° 0.4 mm 2 mps 730 mmHg 95%
    10:00 +2°C° 0.4 mm 2 mps 729 mmHg 94%
    11:00 +2°C° 0.4 mm 2 mps 729 mmHg 94%
    12:00 +2°C° 1.2 mm 2 mps 729 mmHg 94%
    13:00 +2°C° 1.2 mm 2 mps 730 mmHg 94%
    14:00 +1°C° 1.2 mm 2 mps 730 mmHg 94%
    15:00 +1°C° 0.3 mm 2 mps 730 mmHg 91%
    16:00 +1°C° 0.3 mm 2 mps 730 mmHg 89%
    17:00 +1°C° 0.3 mm 2 mps 730 mmHg 86%
    18:00 +1°C° 0 mm 2 mps 730 mmHg 87%
    19:00 -1°C° 0 mm 2 mps 730 mmHg 87%
    20:00 -2°C° 0 mm 2 mps 730 mmHg 88%
    21:00 -2°C° 0 mm 2 mps 730 mmHg 89%
    22:00 -2°C° 0 mm 3 mps 730 mmHg 91%
    23:00 -2°C° 0 mm 3 mps 730 mmHg 92%

    Day after tomorrow, 28 February, Friday

    Time Temperature Precipitation Wind Pressure Humidity
    00:00 -4°C° 0 mm 3 mps 730 mmHg 92%
    01:00 -4°C° 0 mm 3 mps 731 mmHg 92%
    02:00 -4°C° 0 mm 3 mps 731 mmHg 92%
    03:00 -4°C° 0 mm 3 mps 731 mmHg 89%
    04:00 -4°C° 0 mm 3 mps 731 mmHg 87%
    05:00 -4°C° 0 mm 4 mps 731 mmHg 84%
    06:00 -4°C° 0.1 mm 4 mps 731 mmHg 85%
    07:00 -4°C° 0.1 mm 3 mps 731 mmHg 86%
    08:00 -4°C° 0.1 mm 3 mps 731 mmHg 87%
    09:00 -3°C° 0 mm 4 mps 732 mmHg 83%
    10:00 -3°C° 0 mm 4 mps 732 mmHg 80%
    11:00 -2°C° 0 mm 4 mps 732 mmHg 77%
    12:00 -2°C° 0 mm 4 mps 733 mmHg 75%
    13:00 -2°C° 0 mm 4 mps 733 mmHg 74%
    14:00 -2°C° 0 mm 4 mps 733 mmHg 72%
    15:00 -2°C° 0 mm 4 mps 733 mmHg 72%
    16:00 -2°C° 0 mm 4 mps 733 mmHg 72%
    17:00 -1°C° 0 mm 3 mps 734 mmHg 72%
    18:00 -1°C° 0 mm 3 mps 734 mmHg 74%
    19:00 -1°C° 0 mm 3 mps 734 mmHg 75%
    20:00 -1°C° 0 mm 3 mps 734 mmHg 77%
    21:00 -2°C° 0 mm 3 mps 735 mmHg 79%
    22:00 -2°C° 0 mm 3 mps 735 mmHg 82%
    23:00 -4°C° 0 mm 3 mps 735 mmHg 84%

    29 February, Saturday

    Time Temperature Precipitation Wind Pressure Humidity
    00:00 -4°C° 0 mm 3 mps 735 mmHg 86%
    01:00 -4°C° 0 mm 4 mps 735 mmHg 87%
    02:00 -4°C° 0 mm 4 mps 736 mmHg 89%
    03:00 -4°C° 0 mm 3 mps 736 mmHg 90%
    04:00 -4°C° 0 mm 3 mps 736 mmHg 90%
    05:00 -4°C° 0 mm 3 mps 736 mmHg 91%
    06:00 -4°C° 0 mm 3 mps 736 mmHg 90%
    07:00 -4°C° 0 mm 3 mps 737 mmHg 89%
    08:00 -4°C° 0 mm 3 mps 737 mmHg 88%
    09:00 -2°C° 0 mm 3 mps 737 mmHg 84%
    10:00 -2°C° 0 mm 3 mps 737 mmHg 80%
    11:00 -1°C° 0 mm 3 mps 737 mmHg 76%
    12:00 -1°C° 0 mm 3 mps 737 mmHg 74%
    13:00 -1°C° 0 mm 2 mps 737 mmHg 72%
    14:00 -1°C° 0 mm 2 mps 738 mmHg 70%
    15:00 -1°C° 0 mm 2 mps 738 mmHg 72%
    16:00 +1°C° 0 mm 1 mps 738 mmHg 73%
    17:00 +1°C° 0 mm 1 mps 738 mmHg 75%
    18:00 0°C° 0 mm 1 mps 738 mmHg 78%
    19:00 -1°C° 0 mm 1 mps 739 mmHg 80%
    20:00 -1°C° 0 mm 1 mps 739 mmHg 83%
    21:00 -1°C° 0 mm 1 mps 739 mmHg 84%
    22:00 -3°C° 0 mm 2 mps 739 mmHg 85%
    23:00 -4°C° 0 mm 2 mps 739 mmHg 86%

    1 March, Sunday

    Time Temperature Precipitation Wind Pressure Humidity
    00:00 -4°C° 0 mm 2 mps 739 mmHg 86%
    01:00 -4°C° 0 mm 2 mps 739 mmHg 86%
    02:00 -4°C° 0 mm 2 mps 740 mmHg 86%
    03:00 -4°C° 0 mm 2 mps 739 mmHg 88%
    04:00 -4°C° 0 mm 2 mps 739 mmHg 89%
    05:00 -5°C° 0 mm 3 mps 739 mmHg 91%
    06:00 -4°C° 0 mm 3 mps 739 mmHg 88%
    07:00 -4°C° 0 mm 4 mps 738 mmHg 86%
    08:00 -3°C° 0 mm 4 mps 738 mmHg 83%
    09:00 -2°C° 0 mm 5 mps 738 mmHg 78%
    10:00 -1°C° 0 mm 5 mps 737 mmHg 73%
    11:00 -2°C° 0 mm 6 mps 737 mmHg 68%
    12:00 -2°C° 0.1 mm 6 mps 736 mmHg 77%
    13:00 -2°C° 0.1 mm 6 mps 735 mmHg 86%
    14:00 -2°C° 0.1 mm 7 mps 735 mmHg 94%
    15:00 -2°C° 0.4 mm 6 mps 734 mmHg 95%
    16:00 -2°C° 0.4 mm 6 mps 734 mmHg 96%
    17:00 -1°C° 0.4 mm 6 mps 734 mmHg 96%
    18:00 0°C° 0.3 mm 5 mps 734 mmHg 96%
    19:00 0°C° 0.3 mm 4 mps 734 mmHg 96%
    20:00 +1°C° 0.3 mm 3 mps 735 mmHg 96%
    21:00 +1°C° 0 mm 3 mps 735 mmHg 96%
    22:00 +1°C° 0 mm 2 mps 735 mmHg 96%
    23:00 +1°C° 0 mm 2 mps 735 mmHg 97%

    2 March, Monday

    Time Temperature Precipitation Wind Pressure Humidity
    00:00 +1°C° 0 mm 2 mps 735 mmHg 97%
    01:00 +1°C° 0 mm 2 mps 735 mmHg 97%
    02:00 -1°C° 0 mm 2 mps 735 mmHg 97%
    03:00 -1°C° 0 mm 2 mps 735 mmHg 97%
    04:00 +1°C° 0 mm 2 mps 735 mmHg 97%
    05:00 +1°C° 0 mm 2 mps 735 mmHg 97%
    06:00 +1°C° 0 mm 2 mps 735 mmHg 97%
    07:00 +1°C° 0 mm 2 mps 735 mmHg 97%
    08:00 +1°C° 0 mm 2 mps 735 mmHg 96%
    09:00 +2°C° 0 mm 2 mps 736 mmHg 93%
    10:00 +2°C° 0 mm 2 mps 736 mmHg 90%
    11:00 +4°C° 0 mm 1 mps 736 mmHg 87%
    12:00 +4°C° 0 mm 2 mps 736 mmHg 84%
    13:00 +5°C° 0 mm 2 mps 736 mmHg 81%
    14:00 +5°C° 0 mm 2 mps 736 mmHg 78%
    15:00 +5°C° 0 mm 2 mps 736 mmHg 82%
    16:00 +4°C° 0 mm 2 mps 736 mmHg 86%
    17:00 +3°C° 0 mm 2 mps 737 mmHg 90%
    18:00 +2°C° 0 mm 2 mps 737 mmHg 91%
    19:00 +2°C° 0 mm 2 mps 737 mmHg 92%
    20:00 +1°C° 0 mm 2 mps 737 mmHg 92%
    21:00 +2°C° 0 mm 2 mps 737 mmHg 92%
    22:00 +1°C° 0 mm 3 mps 737 mmHg 92%
    23:00 +1°C° 0 mm 3 mps 738 mmHg 92%
    Show more